Find Local Weather

World > North America > United States > Missouri

Saint Louis, Missouri Regional Weather

Lat: 38.64N, Lon: 90.24W
Wx Zone: MOZ064
Feedback
Expires:201810222000;;578090
ASUS43 KEAX 221910
RWREAX

WEATHER ROUNDUP FOR EASTERN KANSAS AND NORTHWEST MISSOURI
NATIONAL WEATHER SERVICE KANSAS CITY/PLEASANT HILL MO
200 PM CDT MON OCT 22 2018


MOZ041-047>049-056>058-063>065-088>090-097-222000-
...EASTERN AND SOUTHERN MISSOURI...
  
CITY           SKY/WX    TMP DP  RH WIND       PRES   REMARKS
ST. LOUIS INTL MOSUNNY   71  41  33 W13       30.12F                  
SPIRIT OF STL  MOSUNNY   71  42  35 SW10G17   30.11F                  
COLUMBIA       SUNNY     71  47  42 SW12      30.12F                  
JEFFERSON CITY SUNNY     72  45  37 SW6       30.12F                  
ROLLA          SUNNY     67  44  43 SW9       30.16F                  
OSAGE BEACH    SUNNY     69  45  41 SW7       30.15F                  
SPRINGFIELD    MOSUNNY   66  47  50 SW7       30.16F                  
BRANSON        PTSUNNY   66  39  37 W3        30.19F                  
JOPLIN         MOSUNNY   65  46  50 SW8       30.16F                  
WEST PLAINS    CLOUDY    63  37  38 S8        30.19F                  

$$


SKY/WX - Weather  TMP - Temperature  DP - Dew Point  RH - Relative Humidity
WIND - Wind Direction/Speed PRES - Barometric Pressure